Temperature
9 8 8 8 7 7 6 5 4 3 3 3 3 2 2 2 2 2 2 2 2 2 2 3 3 3 3 3 3 3 3 4 4 5 5 5 5 6 6 5 6 6 6
8 8 8 7 6 6 5 4 2 2 1 1 1 1 1 1 1 1 2 2 2 2 2 2 2 2 2 3 3 3 3 4 4 4 4 5 5 6 6 5 5 5 5
7 7 6 5 4 3 3 2 1 1 1 1 1 1 1 1 1 1 1 1 1 1 2 2 2 2 2 2 3 3 3 3 3 3 4 5 6 5 5 5 4 4 4
5 5 4 3 2 1 1 0 1 1 1 1 1 0 0 1 1 1 1 1 1 2 2 2 2 2 2 2 3 3 3 3 3 4 4 5 5 4 5 4 4 4 3
4 3 2 2 1 1 1 1 1 1 0 0 0 0 0 0 0 0 1 1 2 2 2 2 3 3 3 3 3 3 3 3 4 4 5 5 4 4 4 3 3 3 2
2 1 1 1 1 1 1 1 1 0 1 0 0 0 1 0 0 1 1 1 2 2 2 2 3 3 3 3 3 3 3 4 4 5 5 5 4 4 4 3 3 3 2
0 0 0 1 1 1 1 1 0 1 1 1 1 1 1 1 1 1 1 1 1 2 2 2 2 3 3 4 4 3 3 3 4 5 5 5 5 4 4 3 2 3 1
0 1 1 1 1 1 1 1 1 1 1 1 1 1 1 1 2 2 2 2 2 2 2 2 2 2 3 4 4 4 4 4 5 5 5 5 6 5 4 3 2 2 0
1 1 1 1 1 1 2 1 1 1 1 1 1 1 1 1 1 1 1 2 2 2 2 2 2 2 3 4 5 5 5 5 5 5 5 5 5 5 4 3 2 2 -0
1 1 1 1 2 2 2 1 1 1 1 1 1 0 0 -0 -0 -0 0 1 2 2 2 2 2 1 2 3 4 5 5 5 5 5 4 4 3 3 3 3 3 2 0
1 1 1 1 2 2 2 2 2 1 1 1 0 -1 -1 -1 -1 -1 -1 -1 0 1 2 2 2 1 1 2 3 4 4 4 4 4 3 2 2 2 2 2 2 2 1
2 2 2 1 1 1 1 2 1 1 0 -0 -1 -1 -2 -2 -2 -2 -2 -1 -0 1 1 2 2 1 1 1 1 2 2 2 2 2 2 2 1 1 1 1 1 1 0
3 2 2 1 1 1 1 1 1 0 -0 -1 -2 -2 -2 -3 -3 -2 -2 -1 -0 0 1 1 2 2 1 1 1 1 1 1 1 1 1 1 1 1 1 0 0 -0 -0
3 3 2 2 2 1 1 1 1 -0 -1 -1 -2 -3 -3 -3 -3 -3 -3 -2 -1 -0 0 1 2 2 2 1 1 1 1 0 0 0 0 0 -0 -0 -0 -0 -1 -1 -1
3 3 2 2 2 1 1 1 0 -0 -1 -1 -2 -3 -3 -3 -4 -4 -4 -3 -2 -1 -0 1 1 2 2 2 1 1 1 0 0 -0 -0 -1 -1 -1 -1 -1 -1 -1 -2
3 3 3 2 2 2 2 2 1 0 -0 -1 -1 -2 -3 -3 -4 -4 -4 -3 -3 -2 -1 -1 -1 0 1 1 1 1 1 1 0 0 -0 -1 -1 -1 -1 -1 -1 -1 -1
4 4 3 2 2 2 2 2 1 0 -0 -1 -1 -2 -3 -3 -3 -3 -3 -3 -3 -3 -2 -2 -2 -1 -0 0 1 1 1 1 1 1 1 -0 -1 -1 -1 -1 -0 -1 -1
4 4 3 3 2 2 1 1 1 -0 -1 -1 -2 -3 -3 -3 -3 -3 -3 -3 -3 -3 -3 -3 -3 -2 -1 -0 0 1 1 1 1 1 1 0 -0 -0 -0 -0 -0 -0 -1
4 4 3 3 2 2 1 1 0 -0 -1 -1 -2 -3 -3 -3 -4 -3 -3 -3 -4 -4 -4 -4 -3 -3 -2 -1 -0 1 1 1 1 1 1 1 0 -0 -0 -0 -0 -1 -1
4 4 3 2 2 1 1 0 -0 -0 -1 -2 -3 -3 -3 -4 -4 -4 -4 -4 -5 -5 -5 -4 -4 -4 -3 -2 -1 -0 0 1 1 1 1 1 0 0 0 -0 -1 -1 -1
4 4 3 3 2 1 0 -0 -1 -1 -1 -2 -3 -3 -4 -4 -4 -4 -5 -5 -5 -5 -5 -5 -4 -4 -3 -2 -1 -0 0 1 1 1 1 0 0 0 -0 -0 -0 -0 -0
4 3 2 2 1 0 0 -0 -1 -1 -2 -3 -3 -3 -4 -4 -5 -4 -5 -5 -5 -5 -5 -5 -4 -3 -3 -2 -1 -1 0 0 1 1 1 0 0 1 0 -0 -0 -0 -0
3 3 2 1 1 0 0 -0 -1 -1 -2 -2 -3 -3 -3 -4 -5 -4 -4 -5 -4 -4 -4 -4 -4 -3 -3 -2 -1 -1 -0 0 1 1 1 0 1 1 0 -0 -0 -0 -0
3 2 2 1 1 1 0 0 -0 -1 -2 -2 -2 -3 -3 -4 -4 -4 -4 -4 -4 -4 -3 -3 -3 -3 -2 -2 -2 -1 -0 0 1 1 1 1 1 0 0 -0 -0 -0 -0
3 2 2 1 1 1 0 0 -0 -1 -1 -2 -2 -3 -3 -3 -4 -3 -4 -3 -3 -3 -3 -2 -2 -2 -2 -1 -1 -0 0 0 1 1 0 0 0 0 0 -0 -0 -0 -0
3 2 2 1 1 1 1 0 -0 -1 -1 -2 -2 -2 -3 -3 -3 -3 -3 -3 -3 -3 -2 -2 -1 -1 -1 -1 -0 0 0 0 0 0 0 0 0 0 0 0 -0 -0 -0
Wind_Speed
8 7 7 7 7 8 8 10 11 12 12 13 14 15 15 14 13 12 12 12 13 13 12 12 13 12 10 9 9 10 10 11 11 8 5 4 6 8 7 8 11 10 16
8 9 9 10 10 10 10 11 12 13 13 14 14 13 13 12 12 12 13 13 12 13 13 13 14 12 12 10 9 11 10 8 8 9 6 3 4 9 11 10 8 11 13
11 11 10 10 10 10 11 12 13 14 13 13 11 10 11 12 12 11 12 12 12 13 14 15 15 14 14 11 10 9 8 8 8 9 7 3 4 6 11 10 9 10 12
10 10 9 10 9 10 11 13 13 12 11 10 9 9 9 10 10 11 11 11 12 13 14 14 14 15 15 13 11 11 9 9 9 10 7 6 7 6 10 10 9 8 9
9 9 9 10 10 11 12 12 11 10 9 9 9 9 8 8 9 11 11 11 12 13 13 14 14 18 20 16 13 11 10 10 9 9 6 8 9 10 9 8 12 11 10
10 10 10 11 12 12 12 11 9 8 10 10 10 10 11 9 13 17 16 12 12 12 13 14 15 17 17 18 19 17 14 13 9 6 8 12 13 11 12 12 13 11 6
12 12 11 11 12 11 10 9 8 10 12 12 11 11 12 13 16 19 21 12 11 11 13 13 13 13 15 11 13 15 15 14 9 3 12 14 14 15 16 13 10 9 10
12 13 13 11 10 9 8 8 9 9 12 13 12 11 10 11 17 19 16 10 11 12 13 14 15 15 14 12 8 7 8 9 9 7 10 13 14 16 15 16 16 16 14
11 12 11 9 8 8 8 10 9 9 11 11 11 10 10 13 18 21 15 9 11 13 13 14 16 14 18 15 5 1 4 6 7 12 15 17 21 23 21 18 16 17 14
11 10 10 9 9 9 9 8 6 6 8 10 10 11 11 12 17 21 18 10 11 12 12 14 18 17 20 19 11 10 13 13 17 20 22 22 20 19 19 15 15 15 15
10 9 9 9 8 8 7 6 7 7 9 10 11 12 14 15 16 21 21 12 10 10 11 12 12 17 20 20 17 14 14 14 17 18 16 15 14 13 12 10 8 11 13
10 8 8 8 7 7 8 9 8 9 9 11 12 12 12 14 17 20 21 18 15 11 11 11 13 19 19 17 15 16 16 13 11 12 12 12 12 11 12 12 11 11 13
7 7 7 7 7 7 7 8 7 7 8 9 11 11 11 11 13 19 19 19 19 14 12 16 18 19 17 13 15 15 13 10 10 11 12 11 10 12 14 14 15 15 15
7 7 6 7 8 7 6 6 6 7 8 9 10 10 11 11 11 12 14 15 16 15 14 16 19 17 16 14 11 10 9 9 9 10 11 11 11 12 11 12 13 12 12
6 5 5 5 5 6 7 5 4 3 4 7 8 8 11 13 15 18 16 14 13 12 12 12 13 13 13 12 10 9 9 9 10 11 12 11 11 11 11 11 10 11 13
5 4 3 4 5 7 7 4 5 6 9 11 11 9 10 14 19 20 20 19 19 15 11 11 11 12 12 12 10 9 8 9 9 10 10 11 12 12 11 10 10 11 12
4 5 4 4 6 7 5 3 3 6 9 11 15 16 17 17 20 22 21 18 17 15 11 11 11 11 11 10 9 8 7 6 7 8 10 10 12 12 12 9 10 11 12
2 3 3 3 4 4 4 3 2 4 6 7 9 12 16 18 19 19 18 14 12 12 10 10 10 10 10 10 10 9 7 6 6 9 10 11 11 11 9 8 10 12 12
5 5 4 4 5 5 5 5 4 4 5 5 7 11 12 14 14 14 15 12 10 10 10 9 9 8 9 9 8 8 7 6 6 8 9 10 10 10 9 9 11 13 13
6 7 6 5 5 6 7 7 6 5 5 7 9 10 11 11 11 10 9 10 10 10 9 9 8 8 8 8 8 7 7 6 5 8 9 9 8 10 11 12 12 12 11
6 7 8 7 7 7 7 7 7 7 6 7 7 10 13 11 9 10 10 10 9 9 9 8 7 7 7 6 7 7 6 5 4 7 9 8 10 10 10 11 11 11 12
7 7 7 8 7 8 8 8 8 8 9 9 8 9 12 10 9 10 9 10 10 9 8 7 7 6 6 6 6 6 5 5 4 7 9 9 10 11 10 10 10 11 12
8 8 8 8 8 8 9 9 9 9 9 10 10 10 10 10 10 10 10 10 9 9 9 7 7 7 7 7 6 4 5 4 3 8 9 8 9 10 11 11 12 12 12
8 8 8 8 8 8 8 9 9 10 10 10 10 10 11 10 10 11 11 10 9 9 11 10 8 8 9 9 8 7 7 7 8 11 11 9 10 11 10 10 11 13 13
8 8 8 8 8 8 8 9 10 10 10 10 10 10 11 11 11 11 11 10 10 9 11 13 13 13 13 12 10 9 8 12 15 15 12 9 11 11 10 10 10 12 13
8 9 8 8 8 8 8 9 9 10 10 10 10 10 11 10 10 10 10 11 11 10 12 15 17 17 16 14 12 11 12 15 18 16 14 10 10 9 9 9 11 11 12
Wind_Direction
4 354 347 338 330 323 314 309 305 300 292 289 293 290 288 290 290 287 289 291 289 286 281 276 275 273 266 257 252 249 245 238 246 254 239 162 150 137 109 85 75 57 58
348 345 340 330 322 315 307 302 300 297 293 289 290 289 293 296 299 299 297 298 297 295 291 285 280 276 266 255 247 245 243 234 242 256 241 155 134 137 118 98 85 73 63
339 331 320 310 308 309 308 306 304 301 299 298 301 305 311 313 311 310 307 303 299 292 285 278 272 266 259 253 247 244 240 239 239 247 234 155 125 132 111 98 89 82 72
319 307 300 297 299 305 307 308 309 308 311 321 329 327 325 324 326 332 325 314 303 296 292 284 276 267 261 257 251 243 236 232 232 234 214 149 142 131 120 115 99 79 73
311 309 311 313 310 315 319 319 319 324 334 340 334 326 326 326 328 327 324 317 309 306 304 301 295 291 284 268 256 241 227 227 229 224 171 144 145 145 132 124 112 98 72
321 318 320 325 326 323 321 323 326 332 339 337 333 328 327 324 317 324 328 317 312 312 309 310 310 305 298 285 269 255 235 228 233 207 153 152 153 142 134 135 129 122 97
320 315 317 320 320 323 330 339 345 336 331 326 318 321 325 325 326 324 324 324 313 320 322 322 322 320 310 290 269 251 242 241 242 195 157 156 153 148 142 134 123 109 113
317 317 320 320 319 328 339 343 335 327 329 327 331 332 333 335 334 336 335 333 331 332 333 334 333 328 326 316 272 234 221 217 211 191 163 154 147 144 136 125 118 110 107
321 325 328 327 331 336 340 334 333 337 342 344 349 351 349 342 348 359 357 343 343 345 340 344 347 345 349 346 344 91 120 99 115 116 115 119 127 128 128 122 123 122 120
328 330 335 345 349 345 339 336 345 354 349 350 356 357 355 354 356 360 360 353 349 349 347 351 353 2 9 14 35 63 79 85 94 92 92 97 105 115 118 122 131 129 130
333 337 346 358 1 360 0 7 3 0 356 359 4 4 3 3 359 358 357 2 357 350 354 354 355 10 25 27 46 61 72 85 95 100 103 104 103 103 104 103 111 127 131
338 350 2 10 16 15 17 9 7 11 9 6 7 6 3 2 0 360 357 1 6 7 4 360 3 13 27 34 49 56 65 76 87 96 100 101 102 102 102 100 97 93 101
342 6 12 13 12 9 9 3 2 13 17 6 5 2 360 1 1 358 3 6 9 12 11 11 14 20 20 31 44 51 62 73 82 90 94 95 98 102 100 99 99 98 95
344 357 4 10 4 4 5 8 15 17 8 6 7 7 5 4 6 10 12 10 10 10 11 17 20 19 21 22 26 55 71 82 89 88 92 98 101 98 101 112 112 111 111
329 338 346 352 360 3 360 358 16 15 348 6 7 360 9 14 12 13 15 20 18 14 17 22 19 18 18 19 23 48 69 81 89 94 103 104 101 103 105 114 114 115 119
294 301 315 334 349 355 356 1 15 22 15 14 9 9 17 18 12 10 8 12 16 17 28 27 21 15 16 14 18 31 53 80 93 105 109 104 108 112 114 109 101 108 114
270 286 311 334 348 352 1 12 359 354 355 1 5 9 10 12 14 10 3 5 18 23 28 23 21 17 11 9 15 24 30 57 83 92 104 114 115 116 118 114 114 116 116
344 335 347 354 10 19 14 8 9 360 3 1 356 4 3 3 5 6 5 6 16 24 22 18 15 12 10 8 9 14 24 39 75 96 109 122 124 122 121 119 123 125 124
52 48 53 61 62 46 32 28 31 29 25 12 9 8 360 355 355 1 10 19 16 15 14 12 9 6 6 5 4 8 20 31 69 103 110 121 129 128 122 120 121 121 124
55 59 62 60 56 45 36 32 29 27 25 26 27 16 6 1 2 1 18 22 17 11 6 6 7 3 360 359 359 8 14 21 59 108 112 113 118 122 124 126 125 124 124
67 61 61 65 58 49 40 33 28 27 26 25 25 17 8 7 359 2 12 12 10 8 5 0 359 357 354 353 356 3 13 21 40 106 114 113 118 121 124 123 121 118 120
77 72 65 61 56 50 43 38 35 34 32 27 16 3 352 4 9 3 7 11 3 2 0 357 354 350 346 346 349 352 6 22 40 109 109 109 116 117 119 118 115 117 122
77 72 64 56 51 45 41 37 35 33 29 24 17 11 6 6 7 3 359 3 359 357 356 356 356 351 344 341 341 348 358 357 36 114 111 112 119 122 125 124 125 125 126
78 73 67 58 51 46 40 36 34 33 30 24 19 16 12 8 6 4 359 356 357 355 355 356 356 352 351 352 349 356 8 28 76 106 105 109 115 118 120 122 128 133 135
80 75 68 61 54 48 43 39 36 33 31 27 21 18 13 10 7 4 0 357 355 355 353 354 358 359 0 4 6 10 37 70 92 102 102 106 113 117 117 119 125 132 137
84 79 72 66 59 53 49 44 40 35 31 26 22 20 17 10 3 360 359 359 359 357 355 355 358 4 9 11 21 43 65 88 102 106 106 102 103 105 107 114 125 132 136
Height
1525 1522 1518 1513 1508 1502 1497 1491 1486 1481 1476 1470 1465 1461 1457 1452 1449 1445 1441 1436 1432 1429 1427 1424 1421 1419 1416 1414 1413 1413 1412 1412 1411 1412 1413 1415 1415 1417 1418 1418 1419 1418 1415
1519 1515 1511 1506 1501 1495 1489 1484 1478 1473 1467 1462 1458 1454 1450 1446 1442 1438 1433 1429 1425 1421 1418 1414 1410 1408 1406 1404 1404 1403 1403 1404 1405 1404 1408 1408 1409 1412 1414 1416 1417 1418 1416
1514 1509 1504 1500 1494 1488 1482 1476 1471 1465 1460 1456 1452 1449 1445 1441 1437 1433 1428 1424 1420 1416 1411 1406 1402 1399 1396 1396 1394 1394 1394 1394 1397 1399 1402 1403 1405 1408 1410 1414 1416 1416 1417
1508 1503 1498 1492 1487 1482 1476 1471 1466 1461 1457 1453 1449 1445 1442 1438 1435 1430 1426 1421 1417 1412 1407 1402 1396 1392 1389 1386 1385 1384 1385 1386 1389 1392 1396 1398 1401 1404 1408 1411 1414 1416 1417
1502 1496 1491 1486 1482 1478 1473 1469 1464 1461 1458 1453 1448 1444 1441 1438 1434 1429 1424 1419 1414 1409 1404 1398 1391 1386 1382 1379 1377 1376 1378 1379 1382 1385 1389 1390 1394 1400 1403 1408 1411 1414 1417
1496 1491 1486 1482 1479 1476 1471 1468 1465 1462 1458 1453 1449 1445 1441 1437 1432 1428 1423 1418 1412 1406 1400 1393 1387 1379 1374 1370 1369 1369 1370 1372 1375 1378 1380 1384 1388 1394 1400 1406 1409 1414 1418
1492 1488 1485 1481 1478 1476 1473 1470 1467 1464 1459 1453 1450 1445 1440 1436 1431 1427 1423 1417 1411 1404 1396 1390 1383 1374 1368 1363 1362 1361 1362 1365 1369 1373 1375 1379 1385 1391 1397 1404 1410 1414 1417
1491 1488 1485 1482 1479 1477 1474 1471 1468 1464 1459 1454 1449 1444 1439 1435 1430 1426 1421 1416 1411 1404 1396 1389 1381 1372 1363 1358 1356 1355 1355 1358 1362 1368 1373 1378 1383 1389 1396 1401 1408 1414 1420
1492 1489 1486 1483 1480 1477 1474 1471 1468 1464 1459 1455 1450 1444 1439 1434 1430 1425 1420 1415 1410 1404 1396 1389 1381 1370 1362 1356 1353 1352 1352 1354 1359 1365 1371 1377 1382 1389 1395 1401 1408 1414 1422
1494 1490 1487 1484 1480 1478 1475 1472 1469 1466 1462 1457 1452 1446 1440 1434 1429 1424 1419 1414 1410 1403 1396 1389 1383 1374 1365 1358 1355 1354 1353 1355 1359 1364 1370 1377 1383 1390 1398 1404 1409 1414 1419
1496 1492 1488 1485 1483 1480 1478 1475 1472 1469 1465 1460 1454 1447 1440 1435 1430 1425 1420 1415 1411 1405 1398 1392 1387 1380 1373 1366 1361 1360 1360 1361 1363 1368 1373 1380 1387 1394 1401 1408 1413 1416 1419
1496 1492 1490 1489 1487 1485 1482 1479 1476 1472 1468 1462 1455 1448 1442 1437 1432 1427 1422 1417 1412 1407 1402 1396 1392 1388 1382 1376 1372 1370 1370 1369 1370 1374 1379 1385 1391 1398 1404 1410 1415 1420 1425
1500 1497 1494 1492 1490 1489 1486 1483 1479 1475 1470 1463 1457 1450 1445 1440 1434 1428 1423 1419 1415 1410 1406 1402 1397 1395 1390 1385 1382 1380 1379 1379 1379 1382 1386 1391 1397 1402 1407 1412 1418 1424 1429
1504 1501 1499 1496 1495 1492 1489 1486 1481 1477 1472 1465 1458 1453 1448 1442 1436 1430 1425 1421 1418 1414 1409 1405 1403 1400 1397 1393 1390 1388 1388 1388 1389 1391 1394 1398 1403 1407 1412 1417 1423 1429 1436
1506 1504 1502 1500 1498 1495 1491 1487 1483 1479 1474 1468 1463 1457 1450 1444 1440 1436 1430 1425 1421 1417 1414 1409 1405 1404 1402 1400 1398 1397 1397 1397 1398 1399 1401 1405 1409 1413 1418 1424 1429 1435 1440
1508 1505 1503 1502 1500 1496 1492 1488 1484 1482 1478 1474 1469 1463 1456 1451 1445 1440 1434 1430 1425 1421 1417 1413 1410 1408 1407 1406 1405 1405 1405 1406 1407 1408 1410 1412 1415 1419 1424 1431 1436 1441 1446
1508 1507 1505 1503 1501 1497 1494 1491 1488 1485 1482 1477 1472 1467 1461 1455 1448 1443 1438 1433 1428 1425 1421 1418 1416 1414 1412 1411 1411 1411 1412 1414 1415 1415 1417 1419 1422 1427 1431 1436 1441 1446 1451
1511 1509 1507 1505 1502 1499 1496 1493 1489 1486 1482 1478 1473 1469 1463 1458 1452 1446 1441 1435 1431 1427 1424 1423 1420 1419 1418 1417 1417 1417 1418 1420 1421 1422 1423 1426 1429 1433 1437 1442 1447 1451 1456
1513 1511 1509 1507 1504 1502 1499 1495 1491 1487 1484 1480 1476 1470 1465 1460 1454 1449 1444 1438 1433 1430 1428 1426 1424 1422 1422 1422 1422 1422 1424 1425 1426 1428 1430 1432 1436 1439 1443 1447 1451 1456 1460
1516 1514 1512 1510 1507 1504 1500 1496 1493 1489 1485 1482 1477 1472 1467 1461 1455 1451 1447 1442 1437 1434 1431 1428 1426 1425 1425 1425 1426 1427 1428 1429 1430 1432 1434 1437 1440 1444 1447 1451 1455 1459 1464
1519 1517 1514 1512 1510 1506 1502 1498 1494 1491 1487 1484 1480 1475 1470 1464 1459 1454 1450 1445 1440 1437 1434 1431 1429 1428 1428 1428 1429 1430 1431 1432 1434 1437 1439 1442 1445 1448 1452 1456 1460 1464 1468
1523 1520 1517 1515 1512 1509 1505 1501 1497 1493 1489 1486 1482 1477 1471 1466 1462 1457 1453 1448 1444 1440 1437 1435 1432 1431 1431 1431 1432 1433 1434 1436 1438 1440 1443 1446 1449 1453 1456 1460 1464 1468 1472
1526 1523 1520 1518 1516 1512 1508 1504 1500 1496 1492 1488 1483 1479 1474 1469 1465 1461 1456 1452 1448 1444 1441 1439 1437 1435 1435 1435 1436 1437 1437 1438 1440 1443 1446 1450 1453 1457 1461 1464 1469 1472 1476
1529 1527 1524 1522 1519 1515 1511 1507 1504 1500 1496 1491 1487 1482 1478 1474 1469 1465 1460 1456 1453 1450 1447 1444 1442 1441 1440 1440 1441 1441 1441 1442 1444 1447 1450 1454 1457 1461 1465 1469 1472 1476 1479
1532 1531 1529 1526 1523 1519 1516 1512 1508 1504 1499 1495 1491 1487 1483 1479 1474 1470 1466 1463 1460 1457 1454 1451 1448 1447 1446 1446 1446 1446 1446 1447 1449 1452 1456 1459 1462 1466 1469 1472 1476 1479 1482
1536 1534 1532 1530 1527 1524 1520 1517 1513 1508 1504 1500 1496 1492 1487 1484 1480 1476 1473 1470 1467 1463 1460 1457 1454 1453 1452 1452 1452 1452 1452 1454 1456 1458 1460 1463 1466 1469 1472 1476 1479 1482 1486